Location: Tyumen
(57.1527°N, 65.5323°E)
Time: 07:55:09
(UTC+05:00)

ISS - Pass Details

Date: 02 December 2021
Orbit: 413 x 422 km, 51.6° (Epoch: 27 January)

Event Time Altitude Azimuth Distance (km) Brightness Sun altitude
Rises 18:39:12 0° 268° (W) 2,389 1.7 -19.9°
Reaches altitude 10° 18:41:34 10° 253° (WSW) 1,519 0.3 -20.3°
Maximum altitude 18:44:20 23° 199° (SSW) 945 -1.7 -20.6°
Enters shadow 18:45:16 21° 174° (S) 1,024 -1.8 -20.8°
